Flag for Portugal Weather past 2 weeks in Vila Nova de Gaia, Portugal

Now
77 °F

Sunny.


Feels Like: 79 °F
Forecast: 59 / 77 °F
Wind: 8 mph from Northwest

Location: Porto / Pedras Rubras

Current Time: Oct 2, 2014 at 3:53:20 PM

Latest Report: Oct 2, 2014 at 3:00 PM


Visibility: 10 mi

Pressure: 30.15 "Hg

Humidity: 54%

Dew point: 59 °F

Location of Vila Nova de GaiaLocation

Historic Weather in Vila Nova de Gaia — Graph

°F

Vila Nova de Gaia temperature yesterday

Maximum temperature yesterday: 82 °F (at 1:30 PM)
Minimum temperature yesterday: 57 °F (at 2:00 AM)
Average temperature yesterday: 69 °F

Past Weeks' High & Low Weather Summary

 TemperatureHumidityPressure
High82 °F (Oct 1, 1:30 PM)100% (Sep 18, 10:30 AM)30.24 "Hg (Sep 18, 10:30 AM)
Low52 °F (Sep 30, 5:00 AM)34% (Sep 25, 4:00 PM)29.59 "Hg (Sep 18, 5:30 AM)
Average66 °F79%30.02 "Hg
* Reported Sep 17 2:00 PM — Oct 2 2:30 PM, Vila Nova de Gaia, Weather by CustomWeather, © 2014

Note: Actual official high and low records may vary slightly from our data, if they occured in-between our weather recording intervals... More about our weather records

Advertising

Vila Nova de Gaia weather history for previous 24 hours

 ConditionsComfort  
Time TempWeatherWind HumidityBarometerVisibility
2:30 PM
Oct 2
79 °FPassing clouds.6 mph51%30.15 "HgN/A
2:00 PM81 °FSunny.5 mph48%30.15 "Hg10 mi
1:30 PM79 °FPassing clouds.6 mph54%30.18 "HgN/A
1:00 PM81 °FSunny.6 mph51%30.18 "Hg10 mi
12:00 PM81 °FPassing clouds.6 mph45%30.18 "HgN/A
11:30 AM79 °FPassing clouds.7 mph48%30.18 "HgN/A
11:00 AM77 °FPassing clouds.8 mph47%30.18 "HgN/A
10:30 AM75 °FSunny.5 mph50%30.18 "Hg10 mi
10:00 AM73 °FPassing clouds.8 mph53%30.18 "HgN/A
9:30 AM73 °FSunny.10 mph53%30.18 "Hg10 mi
9:00 AM72 °FSunny.10 mph57%30.15 "Hg10 mi
8:30 AM70 °FClear.8 mph57%30.15 "Hg10 mi
8:00 AM70 °FClear.9 mph57%30.15 "Hg10 mi
7:30 AM70 °FClear.10 mph57%30.15 "Hg10 mi
7:00 AM70 °FPassing clouds.9 mph57%30.15 "HgN/A
6:30 AM70 °FPassing clouds.9 mph57%30.15 "HgN/A
6:00 AM68 °FClear.7 mph60%30.15 "Hg10 mi
5:30 AM70 °FClear.9 mph57%30.15 "Hg10 mi
5:00 AM63 °FClear.8 mph77%30.15 "Hg10 mi
4:30 AM64 °FClear.7 mph73%30.15 "Hg10 mi
4:00 AM64 °FClear.7 mph78%30.15 "Hg10 mi
3:30 AM66 °FClear.8 mph68%30.15 "Hg10 mi
3:00 AM64 °FPassing clouds.7 mph78%30.15 "HgN/A
2:30 AM68 °FClear.2 mph64%30.15 "Hg10 mi
2:00 AM66 °FClear.5 mph68%30.15 "Hg10 mi
1:30 AM68 °FClear.6 mph64%30.15 "Hg10 mi
1:00 AM68 °FClear.6 mph69%30.15 "Hg10 mi
12:30 AM68 °FPassing clouds.3 mph69%30.18 "HgN/A
12:00 AM64 °FClear.2 mph78%30.18 "Hg10 mi
11:30 PM
Oct 1
66 °FClear.No wind78%30.18 "Hg10 mi
11:00 PM68 °FPassing clouds.5 mph69%30.18 "HgN/A
10:30 PM66 °FClear.3 mph78%30.18 "Hg10 mi
10:00 PM68 °FClear.6 mph73%30.18 "Hg10 mi
9:30 PM72 °FClear.7 mph65%30.18 "Hg10 mi
9:00 PM70 °FClear.5 mph69%30.18 "Hg10 mi
8:30 PM72 °FPassing clouds.6 mph69%30.18 "HgN/A
8:00 PM72 °FPassing clouds.6 mph73%30.15 "HgN/A
7:30 PM73 °FSunny.6 mph69%30.15 "Hg10 mi
7:00 PM75 °FSunny.6 mph65%30.15 "Hg10 mi
6:30 PM77 °FSunny.7 mph57%30.15 "Hg10 mi
6:00 PM79 °FSunny.8 mph54%30.15 "Hg10 mi
5:30 PM79 °FSunny.8 mph54%30.15 "Hg10 mi
5:00 PM79 °FPassing clouds.8 mph54%30.15 "HgN/A
4:30 PM79 °FPassing clouds.9 mph58%30.15 "HgN/A
4:00 PM79 °FPassing clouds.10 mph54%30.15 "HgN/A
3:30 PM81 °FPassing clouds.9 mph54%30.15 "HgN/A
3:00 PM81 °FPassing clouds.9 mph54%30.15 "HgN/A
Weather by CustomWeather, © 2014

See weather overviewHow to use our weather pages